Regional Weather Roundup
Issued by NWS Albany, NY

Home | Current Version | Previous Version | Graphics & Text | Print | Product List | Glossary Off
Versions: 1 2 3 4 5 6 7 8 9 10 11 12 13 14 15 16 17 18 19 20 21 22 23 24 25 26 27 28

000
ASUS41 KALY 051910
RWRALY

NEW YORK STATE HOURLY WEATHER ROUNDUP
NATIONAL WEATHER SERVICE ALBANY NY
200 PM EST MON DEC 05 2016

NOTE: "FAIR" INDICATES FEW OR NO CLOUDS BELOW 12,000 FEET WITH NO
SIGNIFICANT WEATHER AND/OR NO OBSTRUCTIONS TO VISIBILITY.

NYZ032-033-038>043-046>054-057>066-NYZ062>081-082-084-052000-
EAST


CITY           SKY/WX    TMP DP  RH WIND       PRES   REMARKS
ALBANY         PTSUNNY   40  34  79 S5        29.92R
GLENS FALLS    CLOUDY    37  30  75 S12       29.88S HAZE    WCI  29
POUGHKEEPSIE   CLOUDY    43  35  73 W8        29.94R
NEWBURGH       PTSUNNY   45  39  81 SW8       29.94S
MONTGOMERY     CLOUDY    45  37  73 W6        29.92S
WHITE PLAINS   PTSUNNY   46  33  60 NW13G24   29.93R
ISLIP          MOSUNNY   51  36  56 W15G22    29.94R
NEW YORK CITY  MOSUNNY   50  35  56 NW18      29.96R
CENTRAL PARK   SUNNY     48  34  58 MISG      29.98R
$$

NYZ005>009-017-018-044>046-055-056-052000-
CENTRAL


CITY           SKY/WX    TMP DP  RH WIND       PRES   REMARKS
FULTON         CLOUDY    40  32  73 W13       29.92R WCI  32
SYRACUSE       CLOUDY    40  31  70 W18       29.93R WCI  31
ROME           LGT RAIN  36  33  89 W16G23    29.93R WCI  26
ELMIRA         CLOUDY    43  29  57 W16G24    29.95R
BINGHAMTON     CLOUDY    37  29  72 W8        29.92R WCI  31
MONTICELLO     PTSUNNY   36  34  93 NW6       29.92R WCI  31
$$

NYZ026>034-041>043-087-052000-
NORTH


CITY           SKY/WX    TMP DP  RH WIND       PRES   REMARKS
WATERTOWN      CLOUDY    39  33  79 W13       29.90R WCI  31
FORT DRUM      NOT AVBL
OGDENSBURG     CLOUDY    36  32  85 W9        29.87R WCI  29
MASSENA        FLURRIES  32  28  85 SW6       29.87R WCI  26
SARANAC LAKE   LGT SNOW  31  28  89 W7        29.78R VSB 1   WCI  24
PLATTSBURGH    CLOUDY    34  29  82 S6        29.83S WCI  29
$$

NYZ001>004-010>016-019>021-085-052000-
WEST


CITY           SKY/WX    TMP DP  RH WIND       PRES   REMARKS
NIAGARA FALLS  MOSUNNY   43  30  60 W17       29.97R
BUFFALO        PTSUNNY   40  28  62 W20G26    29.98R WCI  30
DUNKIRK        PTSUNNY   42  30  62 W16G25    30.01R
JAMESTOWN      CLOUDY    36  28  75 W8        29.97S WCI  29
WELLSVILLE     CLOUDY    37  29  72 W13G24    29.95R WCI  29
ROCHESTER      CLOUDY    42  29  59 W17G23    29.95R
PENN YAN       CLOUDY    41  27  57 W8        29.95R
$$

             KEY
       WCI = WIND CHILL INDEX
       VSB = VISIBILITY
       HX  = HEAT INDEX
$$




USA.gov is the U.S. government's official web portal to all federal, state and local government web resources and services.